KJ4UBX-11 Weather Reports


Display with metric or nautical units.
time (UTC)temp
F
wind
direction
speed
MPH
gust
MPH
rain 1hr
in
rain 24hr
in
rain mn
in
humidity
%
barometer
mb
20260507075626 57 0.0 0.0 0.00 0.00 0.00 77 1004.5
20260507074642 57 0.0 0.0 0.00 0.00 0.00 83 1004.6
20260507073659 57 0.0 0.0 0.00 0.00 0.00 83 1004.6
20260507072715 57 0.0 0.0 0.00 0.00 0.00 86 1004.5
20260507071732 57 0.0 0.0 0.00 0.00 0.00 86 1004.3
20260507070749 57 0.0 0.0 0.00 0.00 0.00 84 1004.2
20260507065806 58 0.0 0.0 0.00 0.00 0.00 84 1004.2
20260507064824 58 0.0 0.0 0.00 0.00 0.00 86 1004.2
20260507063840 58 0.0 0.0 0.00 0.00 0.00 87 1003.9
20260507062858 58 0.0 0.0 0.00 0.00 0.00 85 1004.0
20260507061914 58 0.0 0.0 0.00 0.00 0.00 88 1003.7
20260507060931 58 0.0 0.0 0.00 0.00 0.00 85 1003.5
20260507055949 58 0.0 0.0 0.00 0.00 0.00 87 1003.8
20260507055006 59 0.0 0.0 0.00 0.00 0.00 82 1003.5
20260507054022 59 0.0 0.0 0.00 0.00 0.00 83 1003.5
20260507053039 59 0.0 0.0 0.00 0.00 0.00 88 1003.7
20260507052056 59 0.0 0.0 0.00 0.00 0.00 88 1003.7
20260507051113 60 0.0 0.0 0.00 0.00 0.00 83 1003.4
20260507050131 60 0.0 0.0 0.00 0.00 0.00 92 1003.6
20260507045148 60 0.0 0.0 0.00 0.00 0.00 95 1003.3
20260507044204 60 0.0 0.0 0.00 0.00 0.00 92 1003.1
20260507043222 61 0.0 0.0 0.00 0.00 0.00 94 1003.2
20260507042237 60 0.0 0.0 0.00 0.00 0.00 100 1003.4
20260507041255 59 0.0 0.0 0.00 0.00 0.00 99 1003.2
20260507040312 60 0.0 0.0 0.00 0.00 0.00 99 1002.9
20260507035329 60 0.0 0.0 0.00 0.00 0.00 99 1002.7
20260507034345 60 0.0 0.0 0.00 0.00 0.00 99 1002.5
20260507033402 60 0.0 0.0 0.00 0.00 0.00 99 1002.6
20260507032419 60 0.0 0.0 0.00 0.00 0.00 99 1002.5
20260507031435 60 0.0 0.0 0.00 0.00 0.00 99 1002.5
20260507030451 59 0.0 0.0 0.00 0.00 0.00 100 1002.6
20260507025508 59 0.0 0.0 0.00 0.00 0.00 100 1002.6
20260507024525 59 0.0 0.0 0.00 0.00 0.00 100 1002.7
20260507023542 59 0.0 0.0 0.00 0.00 0.00 100 1002.8
20260507022557 59 0.0 0.0 0.00 0.00 0.00 97 1002.9
20260507021615 59 0.0 0.0 0.00 0.00 0.00 92 1003.1
20260507020631 59 0.0 0.0 0.00 0.00 0.00 98 1003.1
20260507015648 59 0.0 0.0 0.00 0.00 0.00 92 1003.1
20260507014706 59 0.0 0.0 0.00 0.00 0.00 98 1003.4
20260507013721 59 0.0 0.0 0.00 0.00 0.00 92 1003.5
20260507012738 58 0.0 0.0 0.00 0.00 0.00 100 1003.5
20260507011755 59 0.0 0.0 0.00 0.00 0.00 96 1003.7
20260507010812 59 0.0 0.0 0.00 0.00 0.00 99 1003.6
20260507005830 59 0.0 0.0 0.00 0.00 0.00 97 1003.7
20260507003903 58 0.0 0.0 0.00 0.00 0.00 100 1003.7
20260507002919 58 0.0 0.0 0.00 0.00 0.00 100 1003.8
20260507001937 59 0.0 0.0 0.00 0.00 0.00 100 1003.8
20260507000954 59 0.0 0.0 0.00 0.00 0.00 99 1003.8
20260507000011 59 0.0 0.0 0.00 0.00 0.00 100 1003.8
20260506235028 59 0.0 0.0 0.00 0.00 0.00 98 1003.8
20260506234045 59 0.0 0.0 0.00 0.00 0.00 99 1003.8
20260506233102 59 0.0 0.0 0.00 0.00 0.00 98 1003.8
20260506232118 58 0.0 0.0 0.00 0.00 0.00 99 1003.8
20260506231135 59 0.0 0.0 0.00 0.00 0.00 93 1004.0
20260506230152 59 0.0 0.0 0.00 0.00 0.00 96 1004.1
20260506225210 60 0.0 0.0 0.00 0.00 0.00 86 1004.2
20260506224226 59 0.0 0.0 0.00 0.00 0.00 96 1004.3
20260506223243 59 0.0 0.0 0.00 0.00 0.00 99 1004.4
20260506222300 60 0.0 0.0 0.00 0.00 0.00 98 1004.5
20260506221318 60 0.0 0.0 0.00 0.00 0.00 98 1004.5
20260506220334 60 0.0 0.0 0.00 0.00 0.00 96 1004.6
20260506215351 60 0.0 0.0 0.00 0.00 0.00 98 1004.5
20260506214409 60 0.0 0.0 0.00 0.00 0.00 100 1004.5
20260506213425 61 0.0 0.0 0.00 0.00 0.00 95 1004.6
20260506212442 61 0.0 0.0 0.00 0.00 0.00 93 1004.7
20260506211458 60 0.0 0.0 0.00 0.00 0.00 90 1004.8
20260506210515 60 0.0 0.0 0.00 0.00 0.00 95 1004.9
20260506205532 60 0.0 0.0 0.00 0.00 0.00 94 1005.0
20260506204549 60 0.0 0.0 0.00 0.00 0.00 94 1004.8
20260506203605 61 0.0 0.0 0.00 0.00 0.00 93 1005.0
20260506202623 61 0.0 0.0 0.00 0.00 0.00 93 1004.9
20260506201640 61 0.0 0.0 0.00 0.00 0.00 93 1004.7
20260506200657 62 0.0 0.0 0.00 0.00 0.00 93 1005.0
20260506195715 61 0.0 0.0 0.00 0.00 0.00 94 1005.2
20260506194731 62 0.0 0.0 0.00 0.00 0.00 88 1005.3
20260506193747 62 0.0 0.0 0.00 0.00 0.00 86 1005.6
20260506192804 62 0.0 0.0 0.00 0.00 0.00 89 1005.4
20260506191823 62 0.0 0.0 0.00 0.00 0.00 87 1005.4
20260506190838 62 0.0 0.0 0.00 0.00 0.00 84 1005.6
20260506185855 62 0.0 0.0 0.00 0.00 0.00 82 1005.5
20260506184912 63 0.0 0.0 0.00 0.00 0.00 78 1005.3
20260506183930 62 0.0 0.0 0.00 0.00 0.00 76 1005.3
20260506182946 62 0.0 0.0 0.00 0.00 0.00 74 1005.3
20260506182002 63 0.0 0.0 0.00 0.00 0.00 72 1005.4
20260506181020 62 0.0 0.0 0.00 0.00 0.00 73 1005.5
20260506180037 63 0.0 0.0 0.00 0.00 0.00 72 1005.5
20260506175053 63 0.0 0.0 0.00 0.00 0.00 72 1005.5
20260506174109 62 0.0 0.0 0.00 0.00 0.00 72 1005.7
20260506173126 62 0.0 0.0 0.00 0.00 0.00 73 1005.9
20260506172143 63 0.0 0.0 0.00 0.00 0.00 71 1006.0
20260506171159 63 0.0 0.0 0.00 0.00 0.00 71 1006.1
20260506170217 63 0.0 0.0 0.00 0.00 0.00 71 1006.3
20260506165234 63 0.0 0.0 0.00 0.00 0.00 70 1006.4
20260506164252 65 0.0 0.0 0.00 0.00 0.00 66 1006.6
20260506163310 65 0.0 0.0 0.00 0.00 0.00 64 1006.7
20260506162328 67 0.0 0.0 0.00 0.00 0.00 62 1006.9
20260506161345 68 0.0 0.0 0.00 0.00 0.00 60 1007.1
20260506160401 68 0.0 0.0 0.00 0.00 0.00 59 1007.2
20260506155419 68 0.0 0.0 0.00 0.00 0.00 61 1007.4
20260506154434 67 0.0 0.0 0.00 0.00 0.00 62 1007.5
20260506153451 67 0.0 0.0 0.00 0.00 0.00 63 1007.5
20260506152508 66 0.0 0.0 0.00 0.00 0.00 63 1007.7
20260506151529 68 0.0 0.0 0.00 0.00 0.00 60 1007.5
20260506150547 69 0.0 0.0 0.00 0.00 0.00 59 1007.5
20260506145604 70 0.0 0.0 0.00 0.00 0.00 57 1007.4
20260506144620 69 0.0 0.0 0.00 0.00 0.00 58 1007.2
20260506143640 72 0.0 0.0 0.00 0.00 0.00 54 1007.0
20260506142657 73 0.0 0.0 0.00 0.00 0.00 53 1007.0
20260506141713 71 0.0 0.0 0.00 0.00 0.00 54 1007.3
20260506140728 72 0.0 0.0 0.00 0.00 0.00 56 1007.6
20260506135743 70 0.0 0.0 0.00 0.00 0.00 58 1007.8
20260506134757 68 0.0 0.0 0.00 0.00 0.00 59 1007.6
20260506133813 67 0.0 0.0 0.00 0.00 0.00 66 1007.7
20260506132831 67 0.0 0.0 0.00 0.00 0.00 65 1007.5
20260506131847 67 0.0 0.0 0.00 0.00 0.00 65 1007.4
20260506130901 65 0.0 0.0 0.00 0.00 0.00 69 1007.6
20260506125921 67 0.0 0.0 0.00 0.00 0.00 63 1007.5
20260506124941 71 0.0 0.0 0.00 0.00 0.00 56 1007.5
20260506123955 69 0.0 0.0 0.00 0.00 0.00 61 1007.5
20260506123012 68 0.0 0.0 0.00 0.00 0.00 62 1007.5
20260506122031 70 0.0 0.0 0.00 0.00 0.00 58 1007.8
20260506121041 64 0.0 0.0 0.00 0.00 0.00 73 1007.8
20260506120059 65 0.0 0.0 0.00 0.00 0.00 70 1007.7
20260506115114 65 0.0 0.0 0.00 0.00 0.00 69 1008.0
20260506114131 64 0.0 0.0 0.00 0.00 0.00 69 1008.1
20260506113148 65 0.0 0.0 0.00 0.00 0.00 71 1008.2
20260506112205 64 0.0 0.0 0.00 0.00 0.00 69 1008.0
20260506111220 64 0.0 0.0 0.00 0.00 0.00 72 1008.4
20260506110237 63 0.0 0.0 0.00 0.00 0.00 77 1008.2
20260506105253 62 0.0 0.0 0.00 0.00 0.00 75 1008.2
20260506104309 61 0.0 0.0 0.00 0.00 0.00 77 1008.2
20260506103326 60 0.0 0.0 0.00 0.00 0.00 79 1007.9
20260506102342 60 0.0 0.0 0.00 0.00 0.00 78 1007.8
20260506101357 60 0.0 0.0 0.00 0.00 0.00 79 1008.0
20260506100414 59 0.0 0.0 0.00 0.00 0.00 81 1007.7
20260506095430 59 0.0 0.0 0.00 0.00 0.00 81 1007.9
20260506094446 59 0.0 0.0 0.00 0.00 0.00 82 1007.7
20260506093504 59 0.0 0.0 0.00 0.00 0.00 82 1007.7
20260506092520 59 0.0 0.0 0.00 0.00 0.00 81 1007.7
20260506091538 59 0.0 0.0 0.00 0.00 0.00 81 1007.6
20260506090555 59 0.0 0.0 0.00 0.00 0.00 80 1007.6
20260506085612 60 0.0 0.0 0.00 0.00 0.00 79 1007.6
20260506084630 60 0.0 0.0 0.00 0.00 0.00 77 1007.5
20260506083646 60 0.0 0.0 0.00 0.00 0.00 77 1007.5
20260506082703 60 0.0 0.0 0.00 0.00 0.00 76 1007.3
20260506081720 60 0.0 0.0 0.00 0.00 0.00 76 1007.3
20260506080738 60 0.0 0.0 0.00 0.00 0.00 75 1007.3